sat.trackr.live / text

‹ back to catalog

STARLINK-32858

NORAD 62962 · 2025-029Q

PAYLOAD ACTIVE UNKNOWN

§ Identity

Operator
Country
US
Launch date
2025-02-11
Launch site
AFWTR
Launch vehicle
Mass (kg)
RCS (m²)

Purposes: comms

External: N2YO · Heavens-Above · Gunter

§ Orbital elements

Epoch: 2026-09-21T15:23:59.587296Z

Period
93.85 min
Inclination
53.1601°
Eccentricity
0.0001354
Mean motion
15.34398963 rev/d
Perigee alt
461.8 km
Apogee alt
463.6 km
Semi-major
6,840.8 km
B*
4.2351e-4
RAAN
40.5188°
Arg perigee
93.9816°
Mean anomaly
266.1341°
Rev number
9,132

§ Raw data

STARLINK-328581 62962U 25029Q   26264.64166189  .00013959  00000+0  42351-3 0  99982 62962  53.1601  40.5188 0001354  93.9816 266.1341 15.34398963 91327

JSON: /api/v1/satellites/62962 · /tle

For live sub-satellite position, see the globe view (requires WebGL).

§ Visibility from observer

Set your observer location to see the next 7 days of passes ≥ 10°. The values pass through the URL so the page stays shareable.

No JS? Fill the form by hand. The geolocation button needs JavaScript.